Time,TemperatureF,DewpointF,PressureIn,WindDirection,WindDirectionDegrees,WindSpeedMPH,WindSpeedGustMPH,Humidity,HourlyPrecipIn,Conditions,Clouds,dailyrainin,SoftwareType,DateUTC
2013-09-01 00:01:00,68.6,65.5,30.01,SW,225,0.9,1.1,90,0.00,,,0.00,WUHU216HW,2013-09-01 04:01:00,
2013-09-01 00:02:00,68.6,65.5,30.01,SW,225,0.0,1.1,90,0.00,,,0.00,WUHU216HW,2013-09-01 04:02:00,
2013-09-01 00:03:00,68.6,65.5,30.01,SW,225,0.0,1.1,90,0.00,,,0.00,WUHU216HW,2013-09-01 04:03:00,
2013-09-01 00:08:00,68.6,65.5,30.01,SW,225,0.0,0.9,90,0.00,,,0.00,WUHU216HW,2013-09-01 04:08:00,
2013-09-01 00:13:00,68.6,65.5,30.01,SW,225,0.0,0.0,90,0.00,,,0.00,WUHU216HW,2013-09-01 04:13:00,
2013-09-01 00:18:00,68.6,65.5,30.01,SW,225,0.0,0.0,90,0.00,,,0.00,WUHU216HW,2013-09-01 04:18:00,
2013-09-01 00:23:00,68.4,65.3,30.01,SW,225,0.0,0.0,90,0.00,,,0.00,WUHU216HW,2013-09-01 04:23:00,
2013-09-01 00:28:00,68.4,65.3,30.01,SW,225,0.0,0.0,90,0.00,,,0.00,WUHU216HW,2013-09-01 04:28:00,
2013-09-01 00:33:00,68.2,65.2,30.01,WSW,248,0.0,0.0,90,0.00,,,0.00,WUHU216HW,2013-09-01 04:33:00,
2013-09-01 00:39:00,68.2,65.2,30.01,WSW,248,0.0,0.0,90,0.00,,,0.00,WUHU216HW,2013-09-01 04:39:00,
2013-09-01 00:44:00,68.2,65.2,30.01,WSW,248,0.0,0.0,90,0.00,,,0.00,WUHU216HW,2013-09-01 04:44:00,
2013-09-01 00:49:00,68.0,65.0,30.01,WSW,248,0.0,0.0,90,0.00,,,0.00,WUHU216HW,2013-09-01 04:49:00,
2013-09-01 00:54:00,68.0,65.0,30.00,SE,135,0.9,1.1,90,0.00,,,0.00,WUHU216HW,2013-09-01 04:54:00,
2013-09-01 00:59:00,67.9,65.1,30.00,South,180,1.1,1.1,91,0.00,,,0.00,WUHU216HW,2013-09-01 04:59:00,
2013-09-01 01:04:00,67.9,65.1,30.00,South,180,1.0,1.1,91,0.00,,,0.00,WUHU216HW,2013-09-01 05:04:00,
2013-09-01 01:09:00,67.9,65.1,30.00,SSE,158,0.9,1.1,91,0.00,,,0.00,WUHU216HW,2013-09-01 05:09:00,
2013-09-01 01:14:00,67.9,65.1,30.00,SE,135,0.0,0.9,91,0.00,,,0.00,WUHU216HW,2013-09-01 05:14:00,
2013-09-01 01:19:00,68.0,65.3,30.00,ESE,113,0.0,0.9,91,0.00,,,0.00,WUHU216HW,2013-09-01 05:19:00,
2013-09-01 01:24:00,68.0,65.3,29.99,ESE,113,0.7,0.7,91,0.00,,,0.00,WUHU216HW,2013-09-01 05:24:00,
2013-09-01 01:30:00,68.0,65.3,29.99,ESE,113,0.0,0.7,91,0.00,,,0.00,WUHU216HW,2013-09-01 05:30:00,
2013-09-01 01:35:00,68.0,65.3,29.99,East,90,0.0,0.7,91,0.00,,,0.00,WUHU216HW,2013-09-01 05:35:00,
2013-09-01 01:40:00,68.2,65.4,29.99,North,8,0.7,0.7,91,0.00,,,0.00,WUHU216HW,2013-09-01 05:40:00,
2013-09-01 01:45:00,68.2,65.4,29.99,NNE,23,0.4,0.7,91,0.00,,,0.00,WUHU216HW,2013-09-01 05:45:00,
2013-09-01 01:50:00,68.0,65.3,29.99,East,90,0.0,0.4,91,0.00,,,0.00,WUHU216HW,2013-09-01 05:50:00,
2013-09-01 01:55:00,67.9,65.1,29.99,SSE,158,1.1,1.1,91,0.00,,,0.00,WUHU216HW,2013-09-01 05:55:00,
2013-09-01 02:00:00,67.7,64.9,29.98,SSE,167,0.8,1.1,91,0.00,,,0.00,WUHU216HW,2013-09-01 06:00:00,
2013-09-01 02:05:00,67.7,64.9,29.99,South,180,0.7,0.9,91,0.00,,,0.00,WUHU216HW,2013-09-01 06:05:00,
2013-09-01 02:10:00,67.5,64.7,29.98,South,180,0.4,0.7,91,0.00,,,0.00,WUHU216HW,2013-09-01 06:10:00,
2013-09-01 02:15:00,67.5,64.7,29.98,South,180,0.9,0.9,91,0.00,,,0.00,WUHU216HW,2013-09-01 06:15:00,
2013-09-01 02:21:00,67.5,64.7,29.98,SSE,158,0.0,0.9,91,0.00,,,0.00,WUHU216HW,2013-09-01 06:21:00,
2013-09-01 02:26:00,67.5,64.7,29.98,SSW,203,0.0,0.0,91,0.00,,,0.00,WUHU216HW,2013-09-01 06:26:00,
2013-09-01 02:31:00,67.5,64.7,29.98,South,180,0.7,0.7,91,0.00,,,0.00,WUHU216HW,2013-09-01 06:31:00,
2013-09-01 02:36:00,67.3,64.5,29.98,SSE,158,2.2,2.2,91,0.00,,,0.00,WUHU216HW,2013-09-01 06:36:00,
2013-09-01 02:41:00,67.3,64.5,29.98,South,181,1.2,2.2,91,0.00,,,0.00,WUHU216HW,2013-09-01 06:41:00,
2013-09-01 02:46:00,67.3,64.5,29.98,SSW,203,1.1,2.2,91,0.00,,,0.00,WUHU216HW,2013-09-01 06:46:00,
2013-09-01 02:51:00,67.3,64.5,29.98,South,180,2.0,2.0,91,0.00,,,0.00,WUHU216HW,2013-09-01 06:51:00,
2013-09-01 02:56:00,67.3,64.5,29.98,SSW,203,0.7,2.0,91,0.00,,,0.00,WUHU216HW,2013-09-01 06:56:00,
2013-09-01 03:01:00,67.3,64.5,29.98,SSE,158,1.1,2.0,91,0.00,,,0.00,WUHU216HW,2013-09-01 07:01:00,
2013-09-01 03:06:00,67.3,64.5,29.98,South,180,1.6,1.6,91,0.00,,,0.00,WUHU216HW,2013-09-01 07:06:00,
2013-09-01 03:12:00,67.3,64.5,29.98,SSE,160,2.0,2.5,91,0.00,,,0.00,WUHU216HW,2013-09-01 07:12:00,
2013-09-01 03:17:00,67.3,64.5,29.98,SSE,165,2.0,2.5,91,0.00,,,0.00,WUHU216HW,2013-09-01 07:17:00,
2013-09-01 03:22:00,67.5,64.7,29.97,WSW,248,0.0,2.2,91,0.00,,,0.00,WUHU216HW,2013-09-01 07:22:00,
2013-09-01 03:27:00,67.5,64.7,29.97,WSW,248,0.7,1.8,91,0.00,,,0.00,WUHU216HW,2013-09-01 07:27:00,
2013-09-01 03:32:00,67.5,65.1,29.97,WSW,248,1.0,1.1,92,0.00,,,0.00,WUHU216HW,2013-09-01 07:32:00,
2013-09-01 03:37:00,67.7,64.9,29.97,SW,225,0.2,1.1,91,0.01,,,0.01,WUHU216HW,2013-09-01 07:37:00,
2013-09-01 03:42:00,67.7,64.9,29.97,South,180,1.1,1.1,91,0.01,,,0.01,WUHU216HW,2013-09-01 07:42:00,
2013-09-01 03:47:00,67.7,64.9,29.97,SW,225,0.0,1.1,91,0.01,,,0.01,WUHU216HW,2013-09-01 07:47:00,
2013-09-01 03:52:00,67.5,65.1,29.98,SW,225,0.0,1.1,92,0.01,,,0.01,WUHU216HW,2013-09-01 07:52:00,
2013-09-01 03:57:00,67.5,65.1,29.98,South,180,1.1,1.1,92,0.01,,,0.01,WUHU216HW,2013-09-01 07:57:00,
2013-09-01 04:02:00,67.3,64.5,29.98,SSW,203,1.1,1.1,91,0.01,,,0.01,WUHU216HW,2013-09-01 08:02:00,
2013-09-01 04:08:00,67.3,64.9,29.98,SW,230,0.9,1.3,92,0.01,,,0.01,WUHU216HW,2013-09-01 08:08:00,
2013-09-01 04:13:00,67.3,64.9,29.98,SW,225,0.2,1.3,92,0.01,,,0.01,WUHU216HW,2013-09-01 08:13:00,
2013-09-01 04:18:00,67.5,65.1,29.98,SSW,203,0.7,1.1,92,0.01,,,0.01,WUHU216HW,2013-09-01 08:18:00,
2013-09-01 04:23:00,67.5,65.1,29.98,WSW,248,0.4,0.7,92,0.01,,,0.01,WUHU216HW,2013-09-01 08:23:00,
2013-09-01 04:28:00,67.7,65.3,29.98,West,270,0.0,0.7,92,0.01,,,0.01,WUHU216HW,2013-09-01 08:28:00,
2013-09-01 04:33:00,67.7,65.3,29.99,SSW,199,0.5,1.1,92,0.01,,,0.01,WUHU216HW,2013-09-01 08:33:00,
2013-09-01 04:38:00,67.7,65.3,29.99,SSW,203,0.8,1.1,92,0.00,,,0.01,WUHU216HW,2013-09-01 08:38:00,
2013-09-01 04:43:00,67.7,65.3,29.99,SSW,203,0.7,1.1,92,0.00,,,0.01,WUHU216HW,2013-09-01 08:43:00,
2013-09-01 04:48:00,67.7,65.3,29.98,SW,225,1.8,1.8,92,0.00,,,0.01,WUHU216HW,2013-09-01 08:48:00,
2013-09-01 04:53:00,67.7,65.3,29.98,SW,225,1.3,1.8,92,0.00,,,0.01,WUHU216HW,2013-09-01 08:53:00,
2013-09-01 04:58:00,67.7,65.3,29.99,WSW,248,1.1,1.8,92,0.00,,,0.01,WUHU216HW,2013-09-01 08:58:00,
2013-09-01 05:03:00,67.7,65.3,29.99,SW,225,0.4,1.8,92,0.00,,,0.01,WUHU216HW,2013-09-01 09:03:00,
2013-09-01 05:08:00,67.7,65.3,29.99,SW,230,0.6,1.1,92,0.00,,,0.01,WUHU216HW,2013-09-01 09:08:00,
2013-09-01 05:13:00,67.7,65.3,29.99,WSW,248,0.4,0.7,92,0.00,,,0.01,WUHU216HW,2013-09-01 09:13:00,
2013-09-01 05:18:00,67.9,65.4,29.99,WSW,248,0.4,0.4,92,0.00,,,0.01,WUHU216HW,2013-09-01 09:18:00,
2013-09-01 05:24:00,67.9,65.4,29.99,SSW,199,0.6,1.3,92,0.00,,,0.01,WUHU216HW,2013-09-01 09:24:00,
2013-09-01 05:29:00,67.9,65.4,29.99,SSE,158,2.0,2.0,92,0.00,,,0.01,WUHU216HW,2013-09-01 09:29:00,
2013-09-01 05:34:00,67.7,65.3,29.99,South,180,1.8,2.0,92,0.00,,,0.01,WUHU216HW,2013-09-01 09:34:00,
2013-09-01 05:39:00,67.7,65.3,29.99,SSE,161,1.5,2.0,92,0.00,,,0.01,WUHU216HW,2013-09-01 09:39:00,
2013-09-01 05:44:00,67.7,65.3,29.99,South,180,1.6,2.0,92,0.00,,,0.01,WUHU216HW,2013-09-01 09:44:00,
2013-09-01 05:49:00,67.7,65.3,29.99,SE,135,0.4,1.6,92,0.00,,,0.01,WUHU216HW,2013-09-01 09:49:00,
2013-09-01 05:54:00,67.7,65.3,29.99,South,179,0.7,1.6,92,0.00,,,0.01,WUHU216HW,2013-09-01 09:54:00,
2013-09-01 05:59:00,67.9,65.4,29.99,SSW,203,1.1,1.1,92,0.00,,,0.01,WUHU216HW,2013-09-01 09:59:00,
2013-09-01 06:04:00,67.9,65.4,29.99,WSW,248,1.1,1.1,92,0.00,,,0.01,WUHU216HW,2013-09-01 10:04:00,
2013-09-01 06:09:00,67.9,65.4,29.99,WSW,248,1.1,1.1,92,0.00,,,0.01,WUHU216HW,2013-09-01 10:09:00,
2013-09-01 06:14:00,67.9,65.4,29.98,South,180,1.1,1.1,92,0.00,,,0.01,WUHU216HW,2013-09-01 10:14:00,
2013-09-01 06:19:00,67.9,65.4,29.99,WSW,248,0.9,1.1,92,0.00,,,0.01,WUHU216HW,2013-09-01 10:19:00,
2013-09-01 06:24:00,67.9,65.4,29.99,South,180,1.1,1.1,92,0.00,,,0.01,WUHU216HW,2013-09-01 10:24:00,
2013-09-01 06:29:00,68.0,65.6,29.98,SSW,203,1.1,1.1,92,0.00,,,0.01,WUHU216HW,2013-09-01 10:29:00,
2013-09-01 06:34:00,68.2,65.8,29.99,WSW,248,2.9,2.9,92,0.00,,,0.01,WUHU216HW,2013-09-01 10:34:00,
2013-09-01 06:40:00,68.4,66.0,29.99,SW,225,2.0,2.9,92,0.00,,,0.01,WUHU216HW,2013-09-01 10:40:00,
2013-09-01 06:45:00,68.4,66.0,29.98,WSW,248,1.6,2.9,92,0.00,,,0.01,WUHU216HW,2013-09-01 10:45:00,
2013-09-01 06:50:00,68.6,66.4,29.99,SW,225,3.1,3.1,93,0.00,,,0.01,WUHU216HW,2013-09-01 10:50:00,
2013-09-01 06:55:00,68.8,66.6,29.99,SW,225,0.8,3.1,93,0.00,,,0.01,WUHU216HW,2013-09-01 10:55:00,
2013-09-01 07:00:00,68.8,66.6,29.99,SW,225,0.9,0.9,93,0.00,,,0.01,WUHU216HW,2013-09-01 11:00:00,
2013-09-01 07:05:00,68.8,66.6,29.99,SW,225,1.8,1.8,93,0.00,,,0.01,WUHU216HW,2013-09-01 11:05:00,
2013-09-01 07:10:00,68.6,66.4,29.98,SSE,158,2.0,2.0,93,0.00,,,0.01,WUHU216HW,2013-09-01 11:10:00,
2013-09-01 07:15:00,68.6,66.4,29.98,SW,225,2.5,2.5,93,0.00,,,0.01,WUHU216HW,2013-09-01 11:15:00,
2013-09-01 07:20:00,68.8,66.6,29.98,South,180,1.6,2.5,93,0.00,,,0.01,WUHU216HW,2013-09-01 11:20:00,
2013-09-01 07:25:00,68.8,66.6,29.99,SW,225,1.3,2.5,93,0.00,,,0.01,WUHU216HW,2013-09-01 11:25:00,
2013-09-01 07:30:00,68.8,66.6,29.98,SW,225,0.8,1.6,93,0.00,,,0.01,WUHU216HW,2013-09-01 11:30:00,
2013-09-01 07:35:00,68.9,66.8,29.98,SSW,203,1.8,1.8,93,0.00,,,0.01,WUHU216HW,2013-09-01 11:35:00,
2013-09-01 07:40:00,69.1,67.0,29.98,South,180,1.3,1.8,93,0.00,,,0.01,WUHU216HW,2013-09-01 11:40:00,
2013-09-01 07:45:00,69.1,67.0,29.98,South,180,1.8,1.8,93,0.00,,,0.01,WUHU216HW,2013-09-01 11:45:00,
2013-09-01 07:51:00,69.5,67.3,29.98,SW,225,4.0,4.0,93,0.00,,,0.01,WUHU216HW,2013-09-01 11:51:00,
2013-09-01 07:56:00,69.7,67.5,29.99,WSW,237,1.9,4.0,93,0.00,,,0.01,WUHU216HW,2013-09-01 11:56:00,
2013-09-01 08:01:00,70.0,67.9,29.99,West,270,1.6,4.0,93,0.00,,,0.01,WUHU216HW,2013-09-01 12:01:00,
2013-09-01 08:06:00,70.2,68.0,29.99,West,270,3.1,3.1,93,0.00,,,0.01,WUHU216HW,2013-09-01 12:06:00,
2013-09-01 08:11:00,70.7,68.6,29.99,West,270,1.1,3.1,93,0.00,,,0.01,WUHU216HW,2013-09-01 12:11:00,
2013-09-01 08:16:00,70.9,68.8,29.99,WSW,248,1.8,1.8,93,0.00,,,0.01,WUHU216HW,2013-09-01 12:16:00,
2013-09-01 08:21:00,71.1,68.9,29.99,SW,225,2.0,2.0,93,0.00,,,0.01,WUHU216HW,2013-09-01 12:21:00,
2013-09-01 08:26:00,72.0,69.6,29.99,WSW,249,2.4,2.5,92,0.00,,,0.01,WUHU216HW,2013-09-01 12:26:00,
2013-09-01 08:31:00,72.4,69.9,29.99,SSW,203,1.6,2.5,92,0.00,,,0.01,WUHU216HW,2013-09-01 12:31:00,
2013-09-01 08:36:00,72.7,70.3,29.99,SSW,203,1.8,1.8,92,0.00,,,0.01,WUHU216HW,2013-09-01 12:36:00,
2013-09-01 08:41:00,73.1,70.7,30.00,WSW,248,1.8,2.0,92,0.00,,,0.01,WUHU216HW,2013-09-01 12:41:00,
2013-09-01 08:46:00,73.8,71.4,30.00,SW,233,2.0,3.4,92,0.00,,,0.01,WUHU216HW,2013-09-01 12:46:00,
2013-09-01 08:51:00,74.0,71.6,30.00,WSW,248,2.2,3.4,92,0.00,,,0.01,WUHU216HW,2013-09-01 12:51:00,
2013-09-01 08:56:00,74.3,71.9,30.00,SSW,203,3.8,3.8,92,0.00,,,0.01,WUHU216HW,2013-09-01 12:56:00,
2013-09-01 09:02:00,74.9,72.5,30.00,WSW,248,2.4,3.8,92,0.00,,,0.01,WUHU216HW,2013-09-01 13:02:00,
2013-09-01 09:07:00,75.6,72.8,30.01,WSW,248,2.5,2.5,91,0.00,,,0.01,WUHU216HW,2013-09-01 13:07:00,
2013-09-01 09:12:00,76.0,72.9,30.01,WSW,248,1.8,2.5,90,0.00,,,0.01,WUHU216HW,2013-09-01 13:12:00,
2013-09-01 09:17:00,76.1,72.7,30.01,SW,225,4.0,5.4,89,0.00,,,0.01,WUHU216HW,2013-09-01 13:17:00,
2013-09-01 09:22:00,76.0,72.5,30.01,NW,315,2.5,5.4,89,0.00,,,0.01,WUHU216HW,2013-09-01 13:22:00,
2013-09-01 09:27:00,76.0,72.5,30.00,SSW,203,4.0,4.0,89,0.00,,,0.01,WUHU216HW,2013-09-01 13:27:00,
2013-09-01 09:32:00,76.3,72.5,30.00,West,270,5.2,5.6,88,0.00,,,0.01,WUHU216HW,2013-09-01 13:32:00,
2013-09-01 09:37:00,76.3,72.5,30.00,WSW,253,2.8,5.6,88,0.00,,,0.01,WUHU216HW,2013-09-01 13:37:00,
2013-09-01 09:42:00,76.9,73.4,30.00,SW,225,4.0,4.0,89,0.00,,,0.01,WUHU216HW,2013-09-01 13:42:00,
2013-09-01 09:47:00,77.8,73.3,30.00,WSW,248,4.8,4.9,86,0.00,,,0.01,WUHU216HW,2013-09-01 13:47:00,
2013-09-01 09:52:00,78.3,73.8,30.00,West,270,4.2,4.9,86,0.00,,,0.01,WUHU216HW,2013-09-01 13:52:00,
2013-09-01 09:57:00,78.7,73.8,30.00,WSW,248,3.4,4.9,85,0.00,,,0.01,WUHU216HW,2013-09-01 13:57:00,
2013-09-01 10:02:00,79.0,74.2,30.00,SW,225,4.5,4.5,85,0.00,,,0.01,WUHU216HW,2013-09-01 14:02:00,
2013-09-01 10:08:00,79.6,74.4,30.00,WSW,248,4.0,4.5,84,0.00,,,0.01,WUHU216HW,2013-09-01 14:08:00,
2013-09-01 10:13:00,79.7,73.8,30.00,WSW,248,4.0,4.5,82,0.00,,,0.01,WUHU216HW,2013-09-01 14:13:00,
2013-09-01 10:18:00,79.9,74.0,30.00,SW,225,4.9,4.9,82,0.00,,,0.01,WUHU216HW,2013-09-01 14:18:00,
2013-09-01 10:23:00,80.3,74.4,30.01,WSW,248,5.6,5.6,82,0.00,,,0.01,WUHU216HW,2013-09-01 14:23:00,
2013-09-01 10:28:00,81.7,76.1,30.01,SW,225,4.0,5.6,83,0.00,,,0.01,WUHU216HW,2013-09-01 14:28:00,
2013-09-01 10:33:00,82.3,75.6,30.01,WSW,248,4.3,4.3,80,0.00,,,0.01,WUHU216HW,2013-09-01 14:33:00,
2013-09-01 10:38:00,82.3,75.2,30.01,WSW,248,6.0,6.5,79,0.00,,,0.01,WUHU216HW,2013-09-01 14:38:00,
2013-09-01 10:43:00,82.4,75.3,30.01,West,272,4.4,6.5,79,0.00,,,0.01,WUHU216HW,2013-09-01 14:43:00,
2013-09-01 10:48:00,82.8,76.2,30.01,SSW,203,4.5,6.0,80,0.00,,,0.01,WUHU216HW,2013-09-01 14:48:00,
2013-09-01 10:53:00,83.2,76.1,30.01,WSW,248,6.9,7.6,79,0.00,,,0.01,WUHU216HW,2013-09-01 14:53:00,
2013-09-01 10:58:00,83.5,76.3,30.01,WNW,293,4.5,7.6,79,0.00,,,0.01,WUHU216HW,2013-09-01 14:58:00,
2013-09-01 11:03:00,84.4,77.2,30.00,SW,225,4.9,6.9,79,0.00,,,0.01,WUHU216HW,2013-09-01 15:03:00,
2013-09-01 11:08:00,85.0,76.5,30.00,SSW,204,6.2,7.8,76,0.00,,,0.01,WUHU216HW,2013-09-01 15:08:00,
2013-09-01 11:14:00,85.1,76.7,30.00,SW,225,6.9,7.8,76,0.00,,,0.01,WUHU216HW,2013-09-01 15:14:00,
2013-09-01 11:19:00,85.3,76.9,30.00,West,270,0.9,6.9,76,0.00,,,0.01,WUHU216HW,2013-09-01 15:19:00,
2013-09-01 11:24:00,85.3,76.9,30.00,SW,225,6.9,6.9,76,0.00,,,0.01,WUHU216HW,2013-09-01 15:24:00,
2013-09-01 11:29:00,85.3,76.5,30.00,SW,225,5.8,6.9,75,0.00,,,0.01,WUHU216HW,2013-09-01 15:29:00,
2013-09-01 11:34:00,85.3,76.2,30.00,WSW,248,4.7,6.9,74,0.00,,,0.01,WUHU216HW,2013-09-01 15:34:00,
2013-09-01 11:39:00,85.3,76.2,30.00,WSW,248,6.3,6.3,74,0.00,,,0.01,WUHU216HW,2013-09-01 15:39:00,
2013-09-01 11:44:00,84.8,75.6,30.00,SW,225,3.6,6.3,74,0.00,,,0.01,WUHU216HW,2013-09-01 15:44:00,
2013-09-01 11:49:00,84.6,75.8,29.99,WSW,248,5.6,9.4,75,0.00,,,0.01,WUHU216HW,2013-09-01 15:49:00,
2013-09-01 11:54:00,85.5,75.5,29.99,WSW,248,8.9,9.4,72,0.00,,,0.01,WUHU216HW,2013-09-01 15:54:00,
2013-09-01 11:59:00,85.7,75.7,29.99,WSW,245,6.6,8.9,72,0.00,,,0.01,WUHU216HW,2013-09-01 15:59:00,
2013-09-01 12:04:00,85.3,74.9,29.99,WSW,256,5.3,8.9,71,0.00,,,0.01,WUHU216HW,2013-09-01 16:04:00,
2013-09-01 12:09:00,85.1,75.5,29.99,SSW,203,4.3,5.6,73,0.00,,,0.01,WUHU216HW,2013-09-01 16:09:00,
2013-09-01 12:14:00,85.3,75.7,29.99,WSW,248,8.7,8.7,73,0.00,,,0.01,WUHU216HW,2013-09-01 16:14:00,
2013-09-01 12:19:00,86.2,76.6,29.99,WSW,248,7.8,8.7,73,0.00,,,0.01,WUHU216HW,2013-09-01 16:19:00,
2013-09-01 12:25:00,87.1,77.1,29.99,SW,225,4.5,8.7,72,0.00,,,0.01,WUHU216HW,2013-09-01 16:25:00,
2013-09-01 12:30:00,88.0,77.9,29.99,West,270,5.4,7.8,72,0.00,,,0.01,WUHU216HW,2013-09-01 16:30:00,
2013-09-01 12:35:00,88.6,78.0,29.99,WSW,248,3.8,5.4,71,0.00,,,0.01,WUHU216HW,2013-09-01 16:35:00,
2013-09-01 12:40:00,88.6,76.7,29.98,SW,225,6.0,9.2,68,0.00,,,0.01,WUHU216HW,2013-09-01 16:40:00,
2013-09-01 12:45:00,88.6,76.2,29.98,SW,225,4.0,9.2,67,0.00,,,0.01,WUHU216HW,2013-09-01 16:45:00,
2013-09-01 12:50:00,88.6,76.2,29.98,SW,225,7.8,7.8,67,0.00,,,0.01,WUHU216HW,2013-09-01 16:50:00,
2013-09-01 12:55:00,88.4,75.2,29.98,West,270,8.5,8.5,65,0.00,,,0.01,WUHU216HW,2013-09-01 16:55:00,
2013-09-01 13:00:00,88.6,75.8,29.97,WSW,248,6.9,10.5,66,0.00,,,0.01,WUHU216HW,2013-09-01 17:00:00,
2013-09-01 13:05:00,88.9,76.2,29.97,WSW,248,9.4,10.5,66,0.00,,,0.01,WUHU216HW,2013-09-01 17:05:00,
2013-09-01 13:10:00,89.3,77.0,29.97,SSW,206,4.9,9.4,67,0.00,,,0.01,WUHU216HW,2013-09-01 17:10:00,
2013-09-01 13:15:00,89.6,76.3,29.97,SW,225,8.5,9.4,65,0.00,,,0.01,WUHU216HW,2013-09-01 17:15:00,
2013-09-01 13:20:00,89.5,76.1,29.97,WSW,248,5.1,8.5,65,0.00,,,0.01,WUHU216HW,2013-09-01 17:20:00,
2013-09-01 13:25:00,89.6,76.3,29.97,SW,225,7.8,8.5,65,0.00,,,0.01,WUHU216HW,2013-09-01 17:25:00,
2013-09-01 13:30:00,89.3,76.0,29.97,SW,225,4.9,7.8,65,0.00,,,0.01,WUHU216HW,2013-09-01 17:30:00,
2013-09-01 13:36:00,89.5,75.7,29.97,West,270,9.2,9.2,64,0.00,,,0.01,WUHU216HW,2013-09-01 17:36:00,
2013-09-01 13:41:00,89.5,76.6,29.96,SW,227,6.9,9.2,66,0.00,,,0.01,WUHU216HW,2013-09-01 17:41:00,
2013-09-01 13:46:00,89.6,76.8,29.96,SW,225,7.2,9.2,66,0.00,,,0.01,WUHU216HW,2013-09-01 17:46:00,
2013-09-01 13:51:00,89.3,75.5,29.95,West,270,3.4,7.2,64,0.00,,,0.01,WUHU216HW,2013-09-01 17:51:00,
2013-09-01 13:56:00,89.6,75.4,29.95,SW,219,8.0,9.2,63,0.00,,,0.01,WUHU216HW,2013-09-01 17:56:00,
2013-09-01 14:01:00,89.6,76.3,29.94,West,266,4.4,9.2,65,0.00,,,0.01,WUHU216HW,2013-09-01 18:01:00,
2013-09-01 14:06:00,90.0,75.7,29.94,SSW,203,6.7,6.7,63,0.00,,,0.01,WUHU216HW,2013-09-01 18:06:00,
2013-09-01 14:11:00,90.4,76.5,29.94,WSW,248,5.4,6.7,64,0.00,,,0.01,WUHU216HW,2013-09-01 18:11:00,
2013-09-01 14:16:00,90.5,76.2,29.94,SW,225,5.6,6.7,63,0.00,,,0.01,WUHU216HW,2013-09-01 18:16:00,
2013-09-01 14:21:00,90.2,75.4,29.94,SW,225,7.2,7.4,62,0.00,,,0.01,WUHU216HW,2013-09-01 18:21:00,
2013-09-01 14:26:00,90.0,75.7,29.94,SW,225,5.4,7.4,63,0.00,,,0.01,WUHU216HW,2013-09-01 18:26:00,
2013-09-01 14:32:00,90.0,76.1,29.94,WSW,248,5.4,7.2,64,0.00,,,0.01,WUHU216HW,2013-09-01 18:32:00,
2013-09-01 14:37:00,90.7,75.9,29.94,SW,225,5.6,5.6,62,0.00,,,0.01,WUHU216HW,2013-09-01 18:37:00,
2013-09-01 14:42:00,90.7,75.9,29.94,SW,225,4.5,5.6,62,0.00,,,0.01,WUHU216HW,2013-09-01 18:42:00,
2013-09-01 14:47:00,90.5,75.7,29.94,SW,225,6.9,9.6,62,0.00,,,0.01,WUHU216HW,2013-09-01 18:47:00,
2013-09-01 14:52:00,90.7,75.4,29.93,WSW,248,4.7,9.6,61,0.00,,,0.01,WUHU216HW,2013-09-01 18:52:00,
2013-09-01 14:57:00,91.1,76.2,29.93,WSW,248,7.2,7.2,62,0.00,,,0.01,WUHU216HW,2013-09-01 18:57:00,
2013-09-01 15:02:00,91.1,74.7,29.93,SW,225,7.8,7.8,59,0.00,,,0.01,WUHU216HW,2013-09-01 19:02:00,
2013-09-01 15:07:00,90.7,75.4,29.93,SW,230,6.7,7.8,61,0.00,,,0.01,WUHU216HW,2013-09-01 19:07:00,
2013-09-01 15:12:00,91.1,74.7,29.92,SSW,203,13.0,13.0,59,0.00,,,0.01,WUHU216HW,2013-09-01 19:12:00,
2013-09-01 15:17:00,90.9,74.6,29.92,SW,225,4.9,13.0,59,0.00,,,0.01,WUHU216HW,2013-09-01 19:17:00,
2013-09-01 15:22:00,91.1,74.7,29.93,SW,217,6.0,13.0,59,0.00,,,0.01,WUHU216HW,2013-09-01 19:22:00,
2013-09-01 15:27:00,90.7,75.0,29.93,West,270,6.5,6.9,60,0.00,,,0.01,WUHU216HW,2013-09-01 19:27:00,
2013-09-01 15:32:00,90.5,74.3,29.92,West,270,7.6,7.6,59,0.00,,,0.01,WUHU216HW,2013-09-01 19:32:00,
2013-09-01 15:38:00,90.9,75.6,29.92,South,180,6.9,7.6,61,0.00,,,0.01,WUHU216HW,2013-09-01 19:38:00,
2013-09-01 15:43:00,90.9,75.2,29.91,SSW,207,7.9,11.6,60,0.00,,,0.01,WUHU216HW,2013-09-01 19:43:00,
2013-09-01 15:48:00,91.3,75.9,29.91,SSE,158,6.9,11.6,61,0.00,,,0.01,WUHU216HW,2013-09-01 19:48:00,
2013-09-01 15:53:00,91.1,75.2,29.91,South,180,7.6,7.6,60,0.00,,,0.01,WUHU216HW,2013-09-01 19:53:00,
2013-09-01 15:58:00,90.7,74.4,29.91,WSW,248,9.6,9.6,59,0.00,,,0.01,WUHU216HW,2013-09-01 19:58:00,
2013-09-01 16:03:00,90.4,75.1,29.90,SW,225,8.9,9.6,61,0.00,,,0.01,WUHU216HW,2013-09-01 20:03:00,
2013-09-01 16:08:00,90.2,74.4,29.90,SW,232,8.4,9.6,60,0.00,,,0.01,WUHU216HW,2013-09-01 20:08:00,
2013-09-01 16:13:00,90.0,74.4,29.90,SW,225,5.1,9.8,60,0.00,,,0.01,WUHU216HW,2013-09-01 20:13:00,
2013-09-01 16:18:00,89.5,73.8,29.91,SW,225,6.9,9.8,60,0.00,,,0.01,WUHU216HW,2013-09-01 20:18:00,
2013-09-01 16:24:00,89.5,74.8,29.91,West,270,8.5,8.5,62,0.00,,,0.01,WUHU216HW,2013-09-01 20:24:00,
2013-09-01 16:29:00,89.8,76.1,29.92,SW,225,6.3,8.5,64,0.00,,,0.01,WUHU216HW,2013-09-01 20:29:00,
2013-09-01 16:34:00,90.2,75.4,29.91,SW,225,6.9,8.5,62,0.00,,,0.01,WUHU216HW,2013-09-01 20:34:00,
2013-09-01 16:39:00,90.7,76.3,29.91,West,270,5.6,6.9,63,0.00,,,0.01,WUHU216HW,2013-09-01 20:39:00,
2013-09-01 16:44:00,90.9,75.2,29.91,SW,225,5.1,6.9,60,0.00,,,0.01,WUHU216HW,2013-09-01 20:44:00,
2013-09-01 16:49:00,90.7,75.0,29.92,South,180,6.5,6.5,60,0.00,,,0.01,WUHU216HW,2013-09-01 20:49:00,
2013-09-01 16:54:00,89.8,75.1,29.91,SW,230,8.6,9.6,62,0.00,,,0.01,WUHU216HW,2013-09-01 20:54:00,
2013-09-01 16:59:00,89.5,75.3,29.91,SW,225,6.0,9.6,63,0.00,,,0.01,WUHU216HW,2013-09-01 20:59:00,
2013-09-01 17:04:00,88.9,75.2,29.91,WSW,248,10.1,10.1,64,0.00,,,0.01,WUHU216HW,2013-09-01 21:04:00,
2013-09-01 17:09:00,88.2,74.1,29.91,SSW,203,10.1,10.5,63,0.00,,,0.01,WUHU216HW,2013-09-01 21:09:00,
2013-09-01 17:14:00,87.8,73.7,29.91,WSW,248,8.5,10.5,63,0.00,,,0.01,WUHU216HW,2013-09-01 21:14:00,
2013-09-01 17:19:00,87.5,73.4,29.91,WSW,248,11.4,11.4,63,0.00,,,0.01,WUHU216HW,2013-09-01 21:19:00,
2013-09-01 17:24:00,86.8,72.6,29.91,West,281,7.7,11.4,63,0.00,,,0.01,WUHU216HW,2013-09-01 21:24:00,
2013-09-01 17:29:00,86.6,73.0,29.92,SW,225,6.3,11.4,64,0.00,,,0.01,WUHU216HW,2013-09-01 21:29:00,
2013-09-01 17:35:00,86.2,72.6,29.91,SW,225,6.9,6.9,64,0.00,,,0.01,WUHU216HW,2013-09-01 21:35:00,
2013-09-01 17:40:00,86.0,72.9,29.90,WSW,248,5.1,6.9,65,0.00,,,0.01,WUHU216HW,2013-09-01 21:40:00,
2013-09-01 17:45:00,85.5,72.8,29.90,SW,227,5.4,6.9,66,0.00,,,0.01,WUHU216HW,2013-09-01 21:45:00,
2013-09-01 17:50:00,85.3,72.7,29.91,SW,225,5.4,6.0,66,0.00,,,0.01,WUHU216HW,2013-09-01 21:50:00,
2013-09-01 17:55:00,85.1,72.0,29.91,SW,225,11.6,11.6,65,0.00,,,0.01,WUHU216HW,2013-09-01 21:55:00,
2013-09-01 18:00:00,85.0,72.4,29.92,SW,225,2.5,11.6,66,0.00,,,0.01,WUHU216HW,2013-09-01 22:00:00,
2013-09-01 18:05:00,84.6,72.5,29.92,South,180,3.1,11.6,67,0.00,,,0.01,WUHU216HW,2013-09-01 22:05:00,
2013-09-01 18:10:00,84.6,72.5,29.92,WSW,248,3.1,3.1,67,0.00,,,0.01,WUHU216HW,2013-09-01 22:10:00,
2013-09-01 18:15:00,84.2,72.1,29.94,SSE,158,2.5,3.1,67,0.00,,,0.01,WUHU216HW,2013-09-01 22:15:00,
2013-09-01 18:20:00,83.9,71.7,29.94,West,270,2.0,3.1,67,0.00,,,0.01,WUHU216HW,2013-09-01 22:20:00,
2013-09-01 18:25:00,83.7,71.6,29.94,WSW,248,0.0,2.5,67,0.00,,,0.01,WUHU216HW,2013-09-01 22:25:00,
2013-09-01 18:30:00,83.5,71.8,29.94,WSW,249,3.1,3.6,68,0.00,,,0.01,WUHU216HW,2013-09-01 22:30:00,
2013-09-01 18:35:00,83.2,71.5,29.94,WSW,248,3.4,3.6,68,0.00,,,0.01,WUHU216HW,2013-09-01 22:35:00,
2013-09-01 18:40:00,82.6,71.4,29.95,WNW,293,2.2,3.4,69,0.00,,,0.01,WUHU216HW,2013-09-01 22:40:00,
2013-09-01 18:45:00,82.1,70.4,29.95,ENE,68,1.6,3.4,68,0.00,,,0.01,WUHU216HW,2013-09-01 22:45:00,
2013-09-01 18:50:00,81.0,69.9,29.94,NNE,23,2.0,2.2,69,0.00,,,0.01,WUHU216HW,2013-09-01 22:50:00,
2013-09-01 18:56:00,80.6,69.6,29.94,North,10,1.0,2.2,69,0.00,,,0.01,WUHU216HW,2013-09-01 22:56:00,
2013-09-01 19:01:00,80.5,69.4,29.94,SE,135,0.9,2.0,69,0.00,,,0.01,WUHU216HW,2013-09-01 23:01:00,
2013-09-01 19:06:00,80.5,69.4,29.94,SSE,158,0.2,0.9,69,0.00,,,0.01,WUHU216HW,2013-09-01 23:06:00,
2013-09-01 19:11:00,80.5,69.8,29.94,South,180,1.3,1.3,70,0.00,,,0.01,WUHU216HW,2013-09-01 23:11:00,
2013-09-01 19:16:00,80.3,69.7,29.93,SSE,158,0.0,1.3,70,0.00,,,0.01,WUHU216HW,2013-09-01 23:16:00,
2013-09-01 19:21:00,80.1,69.5,29.94,SE,135,0.0,1.3,70,0.00,,,0.01,WUHU216HW,2013-09-01 23:21:00,
2013-09-01 19:26:00,79.7,69.1,29.93,SE,135,0.0,0.0,70,0.00,,,0.01,WUHU216HW,2013-09-01 23:26:00,
2013-09-01 19:31:00,79.6,69.3,29.93,SSE,158,0.0,0.0,71,0.00,,,0.01,WUHU216HW,2013-09-01 23:31:00,
2013-09-01 19:36:00,79.0,68.8,29.93,SSE,158,0.0,0.0,71,0.00,,,0.01,WUHU216HW,2013-09-01 23:36:00,
2013-09-01 19:41:00,78.8,69.0,29.93,SSE,158,0.0,0.0,72,0.00,,,0.01,WUHU216HW,2013-09-01 23:41:00,
2013-09-01 19:46:00,78.3,69.0,29.93,East,90,0.7,0.7,73,0.00,,,0.01,WUHU216HW,2013-09-01 23:46:00,
2013-09-01 19:51:00,78.1,68.8,29.93,ESE,113,0.0,0.7,73,0.00,,,0.01,WUHU216HW,2013-09-01 23:51:00,
2013-09-01 19:56:00,77.8,68.8,29.94,West,270,0.0,0.7,74,0.00,,,0.01,WUHU216HW,2013-09-01 23:56:00,
2013-09-01 20:01:00,77.4,68.5,29.94,West,270,0.0,0.0,74,0.00,,,0.01,WUHU216HW,2013-09-02 00:01:00,
2013-09-01 20:07:00,77.0,68.5,29.94,NE,45,0.7,0.7,75,0.00,,,0.01,WUHU216HW,2013-09-02 00:07:00,
2013-09-01 20:12:00,76.7,68.1,29.94,NNE,23,1.1,1.1,75,0.00,,,0.01,WUHU216HW,2013-09-02 00:12:00,
2013-09-01 20:17:00,76.3,68.2,29.94,NNE,23,0.7,1.1,76,0.00,,,0.01,WUHU216HW,2013-09-02 00:17:00,
2013-09-01 20:22:00,76.3,68.2,29.93,NNE,23,0.4,1.1,76,0.00,,,0.01,WUHU216HW,2013-09-02 00:22:00,
2013-09-01 20:27:00,76.0,68.2,29.94,NNE,23,0.4,0.4,77,0.00,,,0.01,WUHU216HW,2013-09-02 00:27:00,
2013-09-01 20:32:00,75.8,68.5,29.94,NNE,23,0.4,1.1,78,0.00,,,0.01,WUHU216HW,2013-09-02 00:32:00,
2013-09-01 20:37:00,75.6,68.3,29.94,NE,45,0.0,1.1,78,0.00,,,0.01,WUHU216HW,2013-09-02 00:37:00,
2013-09-01 20:42:00,75.2,68.0,29.94,WSW,248,0.0,0.4,78,0.00,,,0.01,WUHU216HW,2013-09-02 00:42:00,
2013-09-01 20:47:00,75.2,68.0,29.94,SSE,158,1.3,1.3,78,0.00,,,0.01,WUHU216HW,2013-09-02 00:47:00,
2013-09-01 20:52:00,75.1,67.8,29.94,South,180,0.7,1.3,78,0.00,,,0.01,WUHU216HW,2013-09-02 00:52:00,
2013-09-01 20:58:00,74.9,67.6,29.95,SSE,158,0.0,1.3,78,0.00,,,0.01,WUHU216HW,2013-09-02 00:58:00,
2013-09-01 21:03:00,74.5,67.7,29.95,ESE,113,0.0,0.7,79,0.00,,,0.01,WUHU216HW,2013-09-02 01:03:00,
2013-09-01 21:08:00,74.5,67.7,29.95,SSE,158,0.0,0.0,79,0.00,,,0.01,WUHU216HW,2013-09-02 01:08:00,
2013-09-01 21:13:00,74.3,67.9,29.94,SSW,203,0.0,0.0,80,0.00,,,0.01,WUHU216HW,2013-09-02 01:13:00,
2013-09-01 21:18:00,74.0,67.5,29.95,SSW,203,0.0,0.0,80,0.00,,,0.01,WUHU216HW,2013-09-02 01:18:00,
2013-09-01 21:23:00,73.8,67.3,29.95,SSW,203,0.0,0.0,80,0.00,,,0.01,WUHU216HW,2013-09-02 01:23:00,
2013-09-01 21:28:00,73.6,67.5,29.95,SW,225,1.1,1.1,81,0.00,,,0.01,WUHU216HW,2013-09-02 01:28:00,
2013-09-01 21:33:00,73.4,67.3,29.95,SW,225,0.9,1.3,81,0.00,,,0.01,WUHU216HW,2013-09-02 01:33:00,
2013-09-01 21:38:00,73.1,67.0,29.95,WSW,248,1.1,1.3,81,0.00,,,0.01,WUHU216HW,2013-09-02 01:38:00,
2013-09-01 21:44:00,73.1,67.0,29.95,WSW,248,1.1,1.3,81,0.00,,,0.01,WUHU216HW,2013-09-02 01:44:00,
2013-09-01 21:49:00,72.9,67.2,29.95,SSW,203,0.4,1.3,82,0.00,,,0.01,WUHU216HW,2013-09-02 01:49:00,
2013-09-01 21:54:00,72.9,67.4,29.96,WSW,248,1.8,1.8,83,0.00,,,0.01,WUHU216HW,2013-09-02 01:54:00,
2013-09-01 21:59:00,73.1,67.6,29.96,South,180,0.0,1.8,83,0.00,,,0.01,WUHU216HW,2013-09-02 01:59:00,
2013-09-01 22:04:00,73.1,68.0,29.95,WSW,248,0.0,1.8,84,0.00,,,0.01,WUHU216HW,2013-09-02 02:04:00,
2013-09-01 22:09:00,73.3,68.5,29.96,SE,135,0.2,0.4,85,0.00,,,0.01,WUHU216HW,2013-09-02 02:09:00,
2013-09-01 22:14:00,73.3,68.5,29.96,NE,45,1.8,1.8,85,0.00,,,0.01,WUHU216HW,2013-09-02 02:14:00,
2013-09-01 22:19:00,73.3,68.5,29.96,NNE,21,1.4,1.8,85,0.00,,,0.01,WUHU216HW,2013-09-02 02:19:00,
2013-09-01 22:24:00,73.1,68.3,29.96,NNE,23,0.7,1.8,85,0.00,,,0.01,WUHU216HW,2013-09-02 02:24:00,
2013-09-01 22:30:00,73.1,68.3,29.97,NNE,23,0.2,1.3,85,0.00,,,0.01,WUHU216HW,2013-09-02 02:30:00,
2013-09-01 22:35:00,72.9,68.1,29.97,NNE,23,1.8,1.8,85,0.00,,,0.01,WUHU216HW,2013-09-02 02:35:00,
2013-09-01 22:40:00,72.7,68.0,29.97,North,0,1.3,1.8,85,0.00,,,0.01,WUHU216HW,2013-09-02 02:40:00,
2013-09-01 22:45:00,72.7,68.0,29.96,NE,45,0.9,1.8,85,0.00,,,0.01,WUHU216HW,2013-09-02 02:45:00,
2013-09-01 22:50:00,72.7,68.0,29.97,NNE,23,1.1,1.3,85,0.00,,,0.01,WUHU216HW,2013-09-02 02:50:00,
2013-09-01 22:55:00,72.5,67.8,29.97,NNE,23,0.0,1.1,85,0.00,,,0.01,WUHU216HW,2013-09-02 02:55:00,
2013-09-01 23:00:00,72.5,67.8,29.97,NNE,23,0.0,1.1,85,0.00,,,0.01,WUHU216HW,2013-09-02 03:00:00,
2013-09-01 23:05:00,72.4,67.6,29.97,NNE,23,1.1,1.1,85,0.00,,,0.01,WUHU216HW,2013-09-02 03:05:00,
2013-09-01 23:10:00,72.4,67.2,29.97,North,0,0.7,1.1,84,0.00,,,0.01,WUHU216HW,2013-09-02 03:10:00,
2013-09-01 23:15:00,72.4,67.2,29.97,NNW,338,0.0,0.9,84,0.00,,,0.01,WUHU216HW,2013-09-02 03:15:00,
2013-09-01 23:20:00,72.4,67.2,29.97,SSE,158,0.0,0.9,84,0.00,,,0.01,WUHU216HW,2013-09-02 03:20:00,
2013-09-01 23:26:00,72.2,67.1,29.96,SE,135,0.0,0.7,84,0.00,,,0.01,WUHU216HW,2013-09-02 03:26:00,
2013-09-01 23:31:00,72.2,67.1,29.96,SSW,203,0.0,0.0,84,0.00,,,0.01,WUHU216HW,2013-09-02 03:31:00,
2013-09-01 23:36:00,72.0,66.9,29.97,SW,225,0.0,0.0,84,0.00,,,0.01,WUHU216HW,2013-09-02 03:36:00,
2013-09-01 23:41:00,72.0,67.2,29.97,NW,315,0.0,0.0,85,0.00,,,0.01,WUHU216HW,2013-09-02 03:41:00,
2013-09-01 23:46:00,72.0,67.2,29.96,SSE,158,0.4,0.4,85,0.00,,,0.01,WUHU216HW,2013-09-02 03:46:00,
2013-09-01 23:51:00,71.8,67.1,29.96,NNW,338,0.4,0.4,85,0.00,,,0.01,WUHU216HW,2013-09-02 03:51:00,
2013-09-01 23:56:00,71.6,66.9,29.96,North,0,0.0,0.4,85,0.00,,,0.01,WUHU216HW,2013-09-02 03:56:00,